TimeEDT,TemperatureF,Dew PointF,Humidity,Sea Level PressureIn,VisibilityMPH,Wind Direction,Wind SpeedMPH,Gust SpeedMPH,PrecipitationIn,Events,Conditions,WindDirDegrees,DateUTC
12:53 AM,61.0,53.1,75,30.05,10.0,South,5.8,-,N/A,,Overcast,190,2012-10-04 04:53:00
1:53 AM,62.1,52.0,70,30.05,10.0,SSW,8.1,-,N/A,,Overcast,210,2012-10-04 05:53:00
2:53 AM,62.1,52.0,70,30.05,10.0,SSW,6.9,-,N/A,,Overcast,210,2012-10-04 06:53:00
3:53 AM,61.0,52.0,72,30.03,10.0,SSW,9.2,-,N/A,,Overcast,200,2012-10-04 07:53:00
4:53 AM,60.1,51.1,72,30.04,10.0,SSW,8.1,-,N/A,,Overcast,210,2012-10-04 08:53:00
5:53 AM,59.0,51.1,75,30.05,10.0,SSW,8.1,-,N/A,,Overcast,200,2012-10-04 09:53:00
6:53 AM,57.9,51.1,78,30.05,10.0,SW,9.2,-,N/A,,Scattered Clouds,220,2012-10-04 10:53:00
7:53 AM,55.9,50.0,80,30.05,10.0,SSW,6.9,-,N/A,,Clear,210,2012-10-04 11:53:00
8:53 AM,57.9,51.1,78,30.06,10.0,SW,8.1,-,N/A,,Clear,220,2012-10-04 12:53:00
9:53 AM,61.0,53.1,75,30.06,10.0,SW,5.8,-,N/A,,Scattered Clouds,220,2012-10-04 13:53:00
10:53 AM,63.0,53.1,70,30.07,10.0,WSW,9.2,-,N/A,,Overcast,240,2012-10-04 14:53:00
11:53 AM,64.9,54.0,68,30.07,10.0,WSW,12.7,19.6,N/A,,Overcast,240,2012-10-04 15:53:00
12:53 PM,70.0,54.0,57,30.06,10.0,WSW,11.5,-,N/A,,Mostly Cloudy,250,2012-10-04 16:53:00
1:53 PM,73.9,51.1,45,30.02,10.0,WSW,16.1,20.7,N/A,,Partly Cloudy,240,2012-10-04 17:53:00
2:53 PM,75.9,50.0,40,30.01,10.0,WSW,11.5,21.9,N/A,,Partly Cloudy,250,2012-10-04 18:53:00
3:53 PM,75.9,48.0,37,29.99,10.0,WSW,15.0,23.0,N/A,,Partly Cloudy,250,2012-10-04 19:53:00
4:53 PM,75.9,48.9,38,30.00,10.0,SW,13.8,20.7,N/A,,Scattered Clouds,230,2012-10-04 20:53:00
5:53 PM,75.0,48.9,40,30.00,10.0,SW,11.5,21.9,N/A,,Clear,230,2012-10-04 21:53:00
6:53 PM,72.0,48.9,44,29.99,10.0,SSW,8.1,-,N/A,,Clear,200,2012-10-04 22:53:00
7:53 PM,69.1,50.0,51,29.99,10.0,South,4.6,-,N/A,,Mostly Cloudy,180,2012-10-04 23:53:00
8:53 PM,69.1,50.0,51,29.98,10.0,South,5.8,-,N/A,,Overcast,190,2012-10-05 00:53:00
9:53 PM,66.9,51.1,57,29.97,10.0,SSW,4.6,-,0.00,,Overcast,210,2012-10-05 01:53:00
10:53 PM,66.9,55.0,66,30.01,10.0,West,21.9,26.5,0.00,Rain,Light Rain,270,2012-10-05 02:53:00
11:48 PM,62.6,59.0,88,30.00,9.0,SW,8.1,-,0.06,,Overcast,220,2012-10-05 03:48:00
11:53 PM,62.1,59.0,90,30.00,8.0,SW,9.2,-,0.06,,Overcast,220,2012-10-05 03:53:00